Location: Lake Arresoe
(56.0000°N, 12.5000°E)
Time: 16:58:01
(UTC+02:00)

Resurs 1-4 Rocket - Pass Details

Date: 27 July 2021
Orbit: 799 x 815 km, 98.6° (Epoch: 23 September)

Event Time Altitude Azimuth Distance (km) Brightness Sun altitude
Rises 01:18:13 0° 25° (NNE) 3,351 6.6 -14.8°
Reaches altitude 10° 01:21:30 10° 46° (NE) 2,411 5.2 -14.8°
Maximum altitude 01:24:49 16° 85° (E) 1,986 4.2 -14.8°
Drops below altitude 10° 01:28:05 10° 123° (ESE) 2,394 4.3 -14.8°
Enters shadow 01:29:07 - 132° (SE) 2,651 4.4 -14.7°
